Home > Weather > Norwich > Past weeks

Flag for United Kingdom Weather for the Past 2 Weeks in Norwich, England, United Kingdom

Now
36 °F

Passing clouds.


Feels Like: 32 °F
Forecast: 46 / 59 °F
Wind: 5 mph from Southwest

Location: Norwich Weather Centre

Current Time: May 1, 2016 at 7:26:56 AM

Latest Report: May 1, 2016 at 6:50 AM


Visibility: N/A

Pressure: 30.33 "Hg

Humidity: 100%

Dew Point: 36 °F

Location of NorwichLocation

Historic Weather in Norwich — Graph

°F

Norwich Temperature Yesterday

Maximum temperature yesterday: 54 °F (at 3:20 PM)
Minimum temperature yesterday: 34 °F (at 5:50 AM)
Average temperature yesterday: 44 °F

High & Low Weather Summary for the Past Weeks

 TemperatureHumidityPressure
High55 °F (Apr 21, 11:50 AM)100% (Apr 16, 7:20 AM)30.51 "Hg (Apr 16, 7:20 AM)
Low30 °F (Apr 20, 3:20 AM)44% (Apr 29, 4:20 PM)29.45 "Hg (Apr 16, 5:20 AM)
Average44 °F79%30.02 "Hg
* Reported Apr 16 5:20 AM — May 1 5:20 AM, Norwich, Weather by CustomWeather, © 2016

Note: Actual official high and low records may vary slightly from our data, if they occured in-between our weather recording intervals... More about our weather records

Advertising

Norwich Weather History for the Previous 24 Hours

Scroll right to see more
 ConditionsComfort  
Time TempWeatherWind HumidityBarometerVisibility
5:20 AM
Sun, May 1
32 °FChilly.3 mph100%30.33 "HgN/A
4:50 AM32 °FChilly.5 mph100%30.33 "HgN/A
4:20 AM34 °FChilly.5 mph100%30.33 "HgN/A
3:20 AM36 °FChilly.2 mph100%30.33 "HgN/A
2:50 AM36 °FChilly.2 mph100%30.33 "Hg4 mi
2:20 AM36 °FFog.2 mph100%30.30 "Hg2 mi
1:50 AM36 °FChilly.2 mph100%30.30 "HgN/A
1:20 AM37 °FChilly.2 mph100%30.30 "HgN/A
12:50 AM34 °FFog.2 mph100%30.30 "Hg0 mi
12:20 AM37 °FFog.No wind100%30.30 "Hg0 mi
11:50 PM
Sat, Apr 30
37 °FFog.1 mph100%30.30 "Hg0 mi
11:20 PM37 °FFog.1 mph100%30.30 "Hg0 mi
10:50 PM37 °FFog.No wind100%30.30 "Hg0 mi
10:20 PM37 °FFog.1 mph100%30.30 "Hg3 mi
9:50 PM39 °FChilly.2 mph93%30.27 "HgN/A
8:50 PM43 °FSunny.2 mph93%30.27 "Hg10 mi
8:20 PM41 °FPassing clouds.3 mph93%30.27 "HgN/A
7:50 PM43 °FPassing clouds.3 mph87%30.24 "HgN/A
7:20 PM45 °FPassing clouds.5 mph87%30.24 "HgN/A
6:20 PM45 °FRain showers. Scattered clouds.2 mph76%30.24 "Hg6 mi
5:50 PM46 °FThunderstorms. Scattered clouds.6 mph76%30.21 "HgN/A
5:20 PM46 °FScattered showers. Passing clouds.9 mph76%30.18 "HgN/A
4:50 PM48 °FSprinkles. Scattered clouds.12 mph76%30.18 "HgN/A
4:20 PM50 °FSprinkles. Scattered clouds.12 mph62%30.18 "HgN/A
3:50 PM54 °FScattered showers. Passing clouds.7 mph44%30.15 "HgN/A
3:20 PM54 °FScattered showers. Passing clouds.3 mph44%30.15 "HgN/A
2:50 PM52 °FScattered showers. Passing clouds.3 mph44%30.15 "HgN/A
2:20 PM52 °FScattered showers. Passing clouds.7 mph47%30.12 "HgN/A
1:50 PM52 °FScattered clouds.8 mph44%30.12 "HgN/A
12:50 PM52 °FScattered clouds.10 mph50%30.12 "HgN/A
12:20 PM52 °FScattered clouds.9 mph44%30.12 "HgN/A
11:50 AM52 °FScattered clouds.9 mph54%30.12 "HgN/A
11:20 AM52 °FScattered clouds.10 mph54%30.12 "HgN/A
10:50 AM50 °FPassing clouds.12 mph58%30.09 "HgN/A
10:20 AM50 °FPassing clouds.8 mph62%30.09 "HgN/A
9:50 AM48 °FPassing clouds.8 mph71%30.09 "HgN/A
9:20 AM46 °FSunny.7 mph76%30.09 "Hg10 mi
8:50 AM45 °FSunny.8 mph76%30.09 "Hg10 mi
7:50 AM43 °FSunny.8 mph81%30.07 "Hg10 mi
7:20 AM41 °FSunny.7 mph87%30.07 "Hg10 mi
Weather by CustomWeather, © 2016

See weather overviewHow to use our weather pages